Robert E. Mcallister — WDC8669 — position and weather

sailwx.info

Track history (hours):
 
Tides and Currents Weather Stations Pressure Air Temp Water Temp Dewpoint Dewpoint Depression Visibility Wind Speed Wind Dir Waves Ship Positions

Robert E. Mcallister

Owner: McAllister Towing & Transportation, Staten Island, NY. More information available from US FCC via Universal Licensing System and Coast Guard Vessel Documentation Center.

Last reported at 2014-Oct-22 09:33 UTC. Time now 2014-Oct-22 09:51 UTC.
Position N 40°39' W 074°03'.

Length 34 m; draft 4.3 m.

Type: Tug. MMSI: 367091120.

Date/timePositionNaut miles runAvg speedWind from/ knotsBaromVisibWave heightAir tempDewpointWater temp
2014-Oct-22 09:33N 40°39' W 074°03'1 0.8
2014-Oct-22 08:33N 40°40' W 074°04'5 4.6
2014-Oct-22 07:34N 40°38' W 074°10'0 0.0
2014-Oct-22 06:34N 40°38' W 074°10'0 0.0
2014-Oct-22 05:33N 40°38' W 074°10'0 0.0
2014-Oct-22 04:33N 40°38' W 074°10'0 0.0
2014-Oct-22 03:33N 40°38' W 074°10'0 0.0
2014-Oct-22 02:33N 40°38' W 074°10'0 0.0
2014-Oct-22 01:33N 40°38' W 074°10'4 1.9
2014-Oct-21 23:25N 40°35' W 074°13'2 0.8
2014-Oct-21 21:33N 40°36' W 074°12'3 2.7
2014-Oct-21 20:34N 40°38' W 074°10'0 0.0
2014-Oct-21 19:33N 40°38' W 074°10'0 0.0
2014-Oct-21 18:33N 40°38' W 074°10'0 0.0
2014-Oct-21 17:33N 40°38' W 074°10'4 3.7
2014-Oct-21 16:33N 40°39' W 074°05'1 1.3
2014-Oct-21 15:33N 40°40' W 074°05'0 0.1
2014-Oct-21 14:33N 40°40' W 074°05'1 0.9
2014-Oct-21 13:33N 40°40' W 074°04'2 2.3
2014-Oct-21 12:34N 40°39' W 074°07'3 3.2
2014-Oct-21 11:33N 40°42' W 074°08'2 1.7
2014-Oct-21 10:33N 40°40' W 074°08'1 0.7
2014-Oct-21 09:33N 40°40' W 074°09'1 1.3
2014-Oct-21 08:34N 40°38' W 074°10'2 2.1
2014-Oct-21 07:33N 40°40' W 074°08'0 0.0
2014-Oct-21 06:33N 40°40' W 074°08'0 0.2
2014-Oct-21 05:33N 40°40' W 074°08'1 0.7
2014-Oct-21 04:33N 40°40' W 074°09'0 0.0
2014-Oct-21 03:32N 40°40' W 074°09'0 0.0
2014-Oct-21 02:33N 40°40' W 074°09'0 0.0
2014-Oct-21 01:33N 40°40' W 074°09'0 0.0
2014-Oct-21 00:33N 40°40' W 074°09'0 0.0
2014-Oct-20 23:33N 40°40' W 074°09'0 0.0
2014-Oct-20 22:33N 40°40' W 074°09'1 1.3
2014-Oct-20 21:33N 40°41' W 074°09'2 2.4
2014-Oct-20 20:32N 40°38' W 074°10'0 0.1
2014-Oct-20 19:33N 40°38' W 074°10'0 0.0
2014-Oct-20 18:33N 40°38' W 074°10'4 3.6
2014-Oct-20 17:33N 40°39' W 074°05'0 0.2
2014-Oct-20 16:33N 40°39' W 074°05'2 2.2
2014-Oct-20 15:34N 40°38' W 074°03'1 0.8
2014-Oct-20 14:33N 40°38' W 074°04'0 0.0
2014-Oct-20 13:34N 40°38' W 074°04'3 2.8
2014-Oct-20 12:34N 40°40' W 074°05'1 0.9
2014-Oct-20 11:33N 40°40' W 074°04'2 1.6
2014-Oct-20 10:34N 40°38' W 074°04'10 9.4
2014-Oct-20 09:31N 40°33' W 074°15'4 3.8
2014-Oct-20 08:32N 40°37' W 074°12'3 2.5
2014-Oct-20 07:09N 40°33' W 074°14'0 0.1
2014-Oct-20 06:22N 40°33' W 074°14'6 7.4
2014-Oct-20 05:33N 40°39' W 074°10'1 0.6
2014-Oct-20 04:33N 40°38' W 074°10'0 0.0
2014-Oct-20 03:33N 40°38' W 074°10'0 0.0
2014-Oct-20 02:33N 40°38' W 074°10'0 0.0
2014-Oct-20 01:33N 40°38' W 074°10'2 2.5
2014-Oct-20 00:33N 40°41' W 074°09'4 4.2
2014-Oct-19 23:33N 40°39' W 074°04'4 4.3
2014-Oct-19 22:33N 40°38' W 074°10'0 0.1
2014-Oct-19 21:33N 40°38' W 074°10'0 0.0
2014-Oct-19 20:33N 40°38' W 074°10'0 0.0
2014-Oct-19 19:31N 40°38' W 074°10'0 0.0
2014-Oct-19 18:33N 40°38' W 074°10'0 0.0
2014-Oct-19 17:33N 40°38' W 074°10'0 0.0
2014-Oct-19 16:33N 40°38' W 074°10'0 0.0
2014-Oct-19 15:33N 40°38' W 074°10'0 0.0
2014-Oct-19 14:33N 40°38' W 074°10'0 0.0
2014-Oct-19 13:33N 40°38' W 074°10'0 0.0
2014-Oct-19 12:33N 40°38' W 074°10'0 0.0
2014-Oct-19 11:33N 40°38' W 074°10'0 0.0
2014-Oct-19 10:33N 40°38' W 074°10'2 1.9
2014-Oct-19 09:32N 40°40' W 074°08'1 1.2
2014-Oct-19 08:33N 40°41' W 074°08'3 2.6
2014-Oct-19 07:33N 40°39' W 074°07'2 2.0
2014-Oct-19 06:33N 40°38' W 074°10'1 1.0
2014-Oct-19 05:33N 40°39' W 074°09'1 0.5
2014-Oct-19 04:33N 40°39' W 074°09'2 1.8
2014-Oct-19 03:33N 40°40' W 074°08'0 0.0
2014-Oct-19 02:33N 40°40' W 074°08'2 1.9
2014-Oct-19 01:33N 40°39' W 074°08'1 1.2
2014-Oct-19 00:33N 40°40' W 074°09'1 1.4
2014-Oct-18 23:32N 40°38' W 074°10'0 0.0
2014-Oct-18 22:28N 40°38' W 074°10'0 0.0
2014-Oct-18 21:26N 40°38' W 074°10'0 0.0
2014-Oct-18 20:33N 40°38' W 074°10'1 0.9
2014-Oct-18 19:13N 40°39' W 074°09'4 5.9
2014-Oct-18 18:34N 40°39' W 074°04'2 2.1
2014-Oct-18 17:33N 40°39' W 074°06'3 2.4
2014-Oct-18 16:29N 40°38' W 074°10'1 1.3
2014-Oct-18 15:32N 40°39' W 074°09'5 4.8
2014-Oct-18 14:33N 40°38' W 074°03'5 5.0
2014-Oct-18 13:30N 40°38' W 074°10'0 0.0
2014-Oct-18 12:33N 40°38' W 074°10'4 4.0
2014-Oct-18 11:30N 40°39' W 074°04'1 1.4
2014-Oct-18 10:29N 40°38' W 074°04'4 4.4
2014-Oct-18 09:30N 40°40' W 074°08'2 1.9
2014-Oct-18 08:28N 40°38' W 074°10'0 0.0
2014-Oct-18 07:33N 40°38' W 074°10'0 0.0
2014-Oct-18 06:33N 40°38' W 074°10'0 0.0
2014-Oct-18 05:33N 40°38' W 074°10'0 0.0
2014-Oct-18 04:33N 40°38' W 074°10'0 0.0
2014-Oct-18 03:33N 40°38' W 074°10'0 0.0
2014-Oct-18 02:33N 40°38' W 074°10'0 0.0
2014-Oct-18 01:34N 40°38' W 074°10'0 0.0
2014-Oct-18 00:33N 40°38' W 074°10'0 0.0
2014-Oct-17 23:34N 40°38' W 074°10'3 3.1
2014-Oct-17 22:33N 40°41' W 074°08'1 1.2
2014-Oct-17 21:33N 40°40' W 074°08'2 2.3
2014-Oct-17 20:33N 40°39' W 074°06'0 0.1
2014-Oct-17 19:34N 40°39' W 074°06'3 3.2
2014-Oct-17 18:33N 40°38' W 074°10'0 0.0
2014-Oct-17 17:34N 40°38' W 074°10'0 0.0
2014-Oct-17 16:33N 40°38' W 074°10'0 0.0
2014-Oct-17 15:33N 40°38' W 074°10'0 0.0
2014-Oct-17 14:34N 40°38' W 074°10'0 0.0
2014-Oct-17 13:33N 40°38' W 074°10'2 2.1
2014-Oct-17 12:33N 40°40' W 074°08'2 1.7
2014-Oct-17 11:33N 40°39' W 074°09'4 4.4
2014-Oct-17 10:33N 40°38' W 074°03'5 5.3
2014-Oct-17 09:34N 40°38' W 074°10'0 0.0
2014-Oct-17 08:33N 40°38' W 074°10'0 0.0
2014-Oct-17 07:33N 40°38' W 074°10'2 1.6
2014-Oct-17 06:33N 40°40' W 074°09'0 0.2
2014-Oct-17 05:33N 40°40' W 074°08'2 1.8
2014-Oct-17 04:34N 40°38' W 074°10'0 0.0
2014-Oct-17 03:33N 40°38' W 074°10'0 0.0
2014-Oct-17 02:32N 40°38' W 074°10'0 0.0
2014-Oct-17 01:30N 40°38' W 074°10'0 0.0
2014-Oct-17 00:32N 40°38' W 074°10'0 0.0
2014-Oct-16 23:33N 40°38' W 074°10'0 0.0
2014-Oct-16 22:33N 40°38' W 074°10'2 1.6
2014-Oct-16 21:33N 40°39' W 074°08'3 3.3
2014-Oct-16 20:34N 40°39' W 074°03'2 1.7
2014-Oct-16 19:33N 40°39' W 074°06'3 3.2
2014-Oct-16 18:33N 40°38' W 074°10'0 0.0
2014-Oct-16 17:33N 40°38' W 074°10'1 0.9
2014-Oct-16 16:33N 40°39' W 074°09'2 1.6
2014-Oct-16 15:34N 40°41' W 074°08'5 4.8
2014-Oct-16 14:34N 40°38' W 074°03'5 5.1
2014-Oct-16 13:33N 40°38' W 074°10'0 0.0
2014-Oct-16 12:33N 40°38' W 074°10'1 0.3
2014-Oct-16 10:33N 40°39' W 074°09'1 1.1
2014-Oct-16 09:26N 40°38' W 074°08'3 1.3
2014-Oct-16 07:05N 40°38' W 074°12'3 5.5
2014-Oct-16 06:29N 40°39' W 074°07'3 2.9
2014-Oct-16 05:28N 40°38' W 074°04'2 0.8
2014-Oct-16 03:27N 40°40' W 074°04'0 0.2
2014-Oct-16 02:31N 40°40' W 074°04'0 0.0
2014-Oct-16 01:33N 40°40' W 074°04'0 0.0
2014-Oct-16 00:33N 40°40' W 074°04'2 1.5
2014-Oct-15 23:33N 40°39' W 074°06'3 2.3
2014-Oct-15 22:25N 40°38' W 074°09'0 0.6
2014-Oct-15 21:33N 40°38' W 074°10'0 0.0
2014-Oct-15 20:33N 40°38' W 074°10'0 0.0
2014-Oct-15 19:33N 40°38' W 074°10'0 0.0
2014-Oct-15 18:33N 40°38' W 074°10'0 0.0
2014-Oct-15 17:32N 40°38' W 074°10'0 0.0
2014-Oct-15 16:33N 40°38' W 074°10'0 0.0
2014-Oct-15 15:32N 40°38' W 074°10'0 0.0
2014-Oct-15 14:33N 40°38' W 074°10'1 1.3
2014-Oct-15 13:33N 40°40' W 074°09'0 0.5
2014-Oct-15 12:33N 40°39' W 074°09'5 4.5
2014-Oct-15 11:31N 40°38' W 074°03'5 5.4
2014-Oct-15 10:33N 40°38' W 074°10'0 0.0
2014-Oct-15 09:33N 40°38' W 074°10'0 0.0
2014-Oct-15 08:33N 40°38' W 074°10'0 0.0
2014-Oct-15 07:33N 40°38' W 074°10'0 0.0
2014-Oct-15 06:33N 40°38' W 074°10'2 1.5
2014-Oct-15 05:33N 40°39' W 074°08'1 1.3
2014-Oct-15 04:29N 40°40' W 074°09'1 1.4
2014-Oct-15 03:33N 40°38' W 074°10'0 0.0
2014-Oct-15 02:33N 40°38' W 074°10'0 0.0
2014-Oct-15 01:33N 40°38' W 074°10'0 0.0
2014-Oct-15 00:32N 40°38' W 074°10'0 0.0
2014-Oct-14 23:33N 40°38' W 074°10'3 1.5
2014-Oct-14 21:22N 40°41' W 074°08'1 1.7
2014-Oct-14 20:33N 40°40' W 074°08'2 2.0
2014-Oct-14 19:33N 40°38' W 074°10'0 0.0
2014-Oct-14 18:33N 40°38' W 074°10'0 0.0
2014-Oct-14 17:31N 40°38' W 074°10'0 0.0
2014-Oct-14 16:33N 40°38' W 074°10'4 4.2
2014-Oct-14 15:32N 40°39' W 074°04'1 0.3
2014-Oct-14 13:25N 40°40' W 074°04'4 5.2
2014-Oct-14 12:33N 40°38' W 074°10'0 0.0
2014-Oct-14 11:33N 40°38' W 074°10'0 0.0
2014-Oct-14 10:33N 40°38' W 074°10'0 0.0
2014-Oct-14 09:33N 40°38' W 074°10'0 0.0
2014-Oct-14 08:31N 40°38' W 074°10'0 0.0
2014-Oct-14 07:33N 40°38' W 074°10'0 0.0
2014-Oct-14 06:33N 40°38' W 074°10'0 0.0
2014-Oct-14 05:31N 40°38' W 074°10'0 0.0
2014-Oct-14 04:31N 40°38' W 074°10'0 0.0
2014-Oct-13 22:30N 40°38' W 074°10'0 0.0
2014-Oct-13 21:32N 40°38' W 074°10'1 0.5
2014-Oct-13 20:09N 40°39' W 074°09'2 2.8
2014-Oct-13 19:25N 40°41' W 074°09'2 2.8
2014-Oct-13 18:33N 40°38' W 074°10'0 0.1
2014-Oct-13 17:29N 40°38' W 074°10'0 0.0
2014-Oct-13 16:27N 40°38' W 074°10'0 0.0
2014-Oct-13 15:33N 40°38' W 074°10'0 0.0
2014-Oct-13 14:33N 40°38' W 074°10'0 0.0
2014-Oct-13 13:33N 40°38' W 074°10'0 0.0
2014-Oct-13 12:33N 40°38' W 074°10'0 0.0
2014-Oct-13 11:33N 40°38' W 074°10'0 0.0
2014-Oct-13 10:24N 40°38' W 074°10'0 0.0
2014-Oct-13 09:30N 40°38' W 074°10'0 0.0
2014-Oct-13 08:32N 40°38' W 074°10'1 1.2
2014-Oct-13 07:33N 40°39' W 074°09'0 0.2
2014-Oct-13 06:31N 40°39' W 074°09'1 0.2
2014-Oct-13 00:31N 40°38' W 074°10'0 0.0
2014-Oct-12 22:12N 40°38' W 074°10'1 1.1
2014-Oct-12 21:15N 40°39' W 074°09'3 2.2
2014-Oct-12 20:07N 40°39' W 074°06'3 4.7
2014-Oct-12 19:25N 40°38' W 074°10'0 0.0
2014-Oct-12 18:33N 40°38' W 074°10'0 0.0
2014-Oct-12 17:27N 40°38' W 074°10'2 2.7
2014-Oct-12 16:33N 40°41' W 074°09'2 2.2
2014-Oct-12 15:33N 40°39' W 074°08'3 2.5
2014-Oct-12 14:17N 40°39' W 074°04'5 5.9
2014-Oct-12 13:29N 40°38' W 074°10'0 0.0
2014-Oct-12 12:33N 40°38' W 074°10'0 0.2
2014-Oct-12 11:33N 40°38' W 074°10'4 4.1
2014-Oct-12 10:32N 40°40' W 074°05'  
Track history (hours):
 
Tides and Currents Weather Stations Pressure Air Temp Water Temp Dewpoint Dewpoint Depression Visibility Wind Speed Wind Dir Waves Ship Positions

Robert E. Mcallister

Owner: McAllister Towing & Transportation, Staten Island, NY. More information available from US FCC via Universal Licensing System and Coast Guard Vessel Documentation Center.

Last reported at 2014-Oct-22 09:33 UTC. Time now 2014-Oct-22 09:51 UTC.
Position N 40°39' W 074°03'.

Length 34 m; draft 4.3 m.

Type: Tug. MMSI: 367091120.

Date/timePositionNaut miles runAvg speedWind from/ knotsBaromVisibWave heightAir tempDewpointWater temp
2014-Oct-22 09:33N 40°39' W 074°03'1 0.8
2014-Oct-22 08:33N 40°40' W 074°04'5 4.6
2014-Oct-22 07:34N 40°38' W 074°10'0 0.0
2014-Oct-22 06:34N 40°38' W 074°10'0 0.0
2014-Oct-22 05:33N 40°38' W 074°10'0 0.0
2014-Oct-22 04:33N 40°38' W 074°10'0 0.0
2014-Oct-22 03:33N 40°38' W 074°10'0 0.0
2014-Oct-22 02:33N 40°38' W 074°10'0 0.0
2014-Oct-22 01:33N 40°38' W 074°10'4 1.9
2014-Oct-21 23:25N 40°35' W 074°13'2 0.8
2014-Oct-21 21:33N 40°36' W 074°12'3 2.7
2014-Oct-21 20:34N 40°38' W 074°10'0 0.0
2014-Oct-21 19:33N 40°38' W 074°10'0 0.0
2014-Oct-21 18:33N 40°38' W 074°10'0 0.0
2014-Oct-21 17:33N 40°38' W 074°10'4 3.7
2014-Oct-21 16:33N 40°39' W 074°05'1 1.3
2014-Oct-21 15:33N 40°40' W 074°05'0 0.1
2014-Oct-21 14:33N 40°40' W 074°05'1 0.9
2014-Oct-21 13:33N 40°40' W 074°04'2 2.3
2014-Oct-21 12:34N 40°39' W 074°07'3 3.2
2014-Oct-21 11:33N 40°42' W 074°08'2 1.7
2014-Oct-21 10:33N 40°40' W 074°08'1 0.7
2014-Oct-21 09:33N 40°40' W 074°09'1 1.3
2014-Oct-21 08:34N 40°38' W 074°10'2 2.1
2014-Oct-21 07:33N 40°40' W 074°08'0 0.0
2014-Oct-21 06:33N 40°40' W 074°08'0 0.2
2014-Oct-21 05:33N 40°40' W 074°08'1 0.7
2014-Oct-21 04:33N 40°40' W 074°09'0 0.0
2014-Oct-21 03:32N 40°40' W 074°09'0 0.0
2014-Oct-21 02:33N 40°40' W 074°09'0 0.0
2014-Oct-21 01:33N 40°40' W 074°09'0 0.0
2014-Oct-21 00:33N 40°40' W 074°09'0 0.0
2014-Oct-20 23:33N 40°40' W 074°09'0 0.0
2014-Oct-20 22:33N 40°40' W 074°09'1 1.3
2014-Oct-20 21:33N 40°41' W 074°09'2 2.4
2014-Oct-20 20:32N 40°38' W 074°10'0 0.1
2014-Oct-20 19:33N 40°38' W 074°10'0 0.0
2014-Oct-20 18:33N 40°38' W 074°10'4 3.6
2014-Oct-20 17:33N 40°39' W 074°05'0 0.2
2014-Oct-20 16:33N 40°39' W 074°05'2 2.2
2014-Oct-20 15:34N 40°38' W 074°03'1 0.8
2014-Oct-20 14:33N 40°38' W 074°04'0 0.0
2014-Oct-20 13:34N 40°38' W 074°04'3 2.8
2014-Oct-20 12:34N 40°40' W 074°05'1 0.9
2014-Oct-20 11:33N 40°40' W 074°04'2 1.6
2014-Oct-20 10:34N 40°38' W 074°04'10 9.4
2014-Oct-20 09:31N 40°33' W 074°15'4 3.8
2014-Oct-20 08:32N 40°37' W 074°12'3 2.5
2014-Oct-20 07:09N 40°33' W 074°14'0 0.1
2014-Oct-20 06:22N 40°33' W 074°14'6 7.4
2014-Oct-20 05:33N 40°39' W 074°10'1 0.6
2014-Oct-20 04:33N 40°38' W 074°10'0 0.0
2014-Oct-20 03:33N 40°38' W 074°10'0 0.0
2014-Oct-20 02:33N 40°38' W 074°10'0 0.0
2014-Oct-20 01:33N 40°38' W 074°10'2 2.5
2014-Oct-20 00:33N 40°41' W 074°09'4 4.2
2014-Oct-19 23:33N 40°39' W 074°04'4 4.3
2014-Oct-19 22:33N 40°38' W 074°10'0 0.1
2014-Oct-19 21:33N 40°38' W 074°10'0 0.0
2014-Oct-19 20:33N 40°38' W 074°10'0 0.0
2014-Oct-19 19:31N 40°38' W 074°10'0 0.0
2014-Oct-19 18:33N 40°38' W 074°10'0 0.0
2014-Oct-19 17:33N 40°38' W 074°10'0 0.0
2014-Oct-19 16:33N 40°38' W 074°10'0 0.0
2014-Oct-19 15:33N 40°38' W 074°10'0 0.0
2014-Oct-19 14:33N 40°38' W 074°10'0 0.0
2014-Oct-19 13:33N 40°38' W 074°10'0 0.0
2014-Oct-19 12:33N 40°38' W 074°10'0 0.0
2014-Oct-19 11:33N 40°38' W 074°10'0 0.0
2014-Oct-19 10:33N 40°38' W 074°10'2 1.9
2014-Oct-19 09:32N 40°40' W 074°08'1 1.2
2014-Oct-19 08:33N 40°41' W 074°08'3 2.6
2014-Oct-19 07:33N 40°39' W 074°07'2 2.0
2014-Oct-19 06:33N 40°38' W 074°10'1 1.0
2014-Oct-19 05:33N 40°39' W 074°09'1 0.5
2014-Oct-19 04:33N 40°39' W 074°09'2 1.8
2014-Oct-19 03:33N 40°40' W 074°08'0 0.0
2014-Oct-19 02:33N 40°40' W 074°08'2 1.9
2014-Oct-19 01:33N 40°39' W 074°08'1 1.2
2014-Oct-19 00:33N 40°40' W 074°09'1 1.4
2014-Oct-18 23:32N 40°38' W 074°10'0 0.0
2014-Oct-18 22:28N 40°38' W 074°10'0 0.0
2014-Oct-18 21:26N 40°38' W 074°10'0 0.0
2014-Oct-18 20:33N 40°38' W 074°10'1 0.9
2014-Oct-18 19:13N 40°39' W 074°09'4 5.9
2014-Oct-18 18:34N 40°39' W 074°04'2 2.1
2014-Oct-18 17:33N 40°39' W 074°06'3 2.4
2014-Oct-18 16:29N 40°38' W 074°10'1 1.3
2014-Oct-18 15:32N 40°39' W 074°09'5 4.8
2014-Oct-18 14:33N 40°38' W 074°03'5 5.0
2014-Oct-18 13:30N 40°38' W 074°10'0 0.0
2014-Oct-18 12:33N 40°38' W 074°10'4 4.0
2014-Oct-18 11:30N 40°39' W 074°04'1 1.4
2014-Oct-18 10:29N 40°38' W 074°04'4 4.4
2014-Oct-18 09:30N 40°40' W 074°08'2 1.9
2014-Oct-18 08:28N 40°38' W 074°10'0 0.0
2014-Oct-18 07:33N 40°38' W 074°10'0 0.0
2014-Oct-18 06:33N 40°38' W 074°10'0 0.0
2014-Oct-18 05:33N 40°38' W 074°10'0 0.0
2014-Oct-18 04:33N 40°38' W 074°10'0 0.0
2014-Oct-18 03:33N 40°38' W 074°10'0 0.0
2014-Oct-18 02:33N 40°38' W 074°10'0 0.0
2014-Oct-18 01:34N 40°38' W 074°10'0 0.0
2014-Oct-18 00:33N 40°38' W 074°10'0 0.0
2014-Oct-17 23:34N 40°38' W 074°10'3 3.1
2014-Oct-17 22:33N 40°41' W 074°08'1 1.2
2014-Oct-17 21:33N 40°40' W 074°08'2 2.3
2014-Oct-17 20:33N 40°39' W 074°06'0 0.1
2014-Oct-17 19:34N 40°39' W 074°06'3 3.2
2014-Oct-17 18:33N 40°38' W 074°10'0 0.0
2014-Oct-17 17:34N 40°38' W 074°10'0 0.0
2014-Oct-17 16:33N 40°38' W 074°10'0 0.0
2014-Oct-17 15:33N 40°38' W 074°10'0 0.0
2014-Oct-17 14:34N 40°38' W 074°10'0 0.0
2014-Oct-17 13:33N 40°38' W 074°10'2 2.1
2014-Oct-17 12:33N 40°40' W 074°08'2 1.7
2014-Oct-17 11:33N 40°39' W 074°09'4 4.4
2014-Oct-17 10:33N 40°38' W 074°03'5 5.3
2014-Oct-17 09:34N 40°38' W 074°10'0 0.0
2014-Oct-17 08:33N 40°38' W 074°10'0 0.0
2014-Oct-17 07:33N 40°38' W 074°10'2 1.6
2014-Oct-17 06:33N 40°40' W 074°09'0 0.2
2014-Oct-17 05:33N 40°40' W 074°08'2 1.8
2014-Oct-17 04:34N 40°38' W 074°10'0 0.0
2014-Oct-17 03:33N 40°38' W 074°10'0 0.0
2014-Oct-17 02:32N 40°38' W 074°10'0 0.0
2014-Oct-17 01:30N 40°38' W 074°10'0 0.0
2014-Oct-17 00:32N 40°38' W 074°10'0 0.0
2014-Oct-16 23:33N 40°38' W 074°10'0 0.0
2014-Oct-16 22:33N 40°38' W 074°10'2 1.6
2014-Oct-16 21:33N 40°39' W 074°08'3 3.3
2014-Oct-16 20:34N 40°39' W 074°03'2 1.7
2014-Oct-16 19:33N 40°39' W 074°06'3 3.2
2014-Oct-16 18:33N 40°38' W 074°10'0 0.0
2014-Oct-16 17:33N 40°38' W 074°10'1 0.9
2014-Oct-16 16:33N 40°39' W 074°09'2 1.6
2014-Oct-16 15:34N 40°41' W 074°08'5 4.8
2014-Oct-16 14:34N 40°38' W 074°03'5 5.1
2014-Oct-16 13:33N 40°38' W 074°10'0 0.0
2014-Oct-16 12:33N 40°38' W 074°10'1 0.3
2014-Oct-16 10:33N 40°39' W 074°09'1 1.1
2014-Oct-16 09:26N 40°38' W 074°08'3 1.3
2014-Oct-16 07:05N 40°38' W 074°12'3 5.5
2014-Oct-16 06:29N 40°39' W 074°07'3 2.9
2014-Oct-16 05:28N 40°38' W 074°04'2 0.8
2014-Oct-16 03:27N 40°40' W 074°04'0 0.2
2014-Oct-16 02:31N 40°40' W 074°04'0 0.0
2014-Oct-16 01:33N 40°40' W 074°04'0 0.0
2014-Oct-16 00:33N 40°40' W 074°04'2 1.5
2014-Oct-15 23:33N 40°39' W 074°06'3 2.3
2014-Oct-15 22:25N 40°38' W 074°09'0 0.6
2014-Oct-15 21:33N 40°38' W 074°10'0 0.0
2014-Oct-15 20:33N 40°38' W 074°10'0 0.0
2014-Oct-15 19:33N 40°38' W 074°10'0 0.0
2014-Oct-15 18:33N 40°38' W 074°10'0 0.0
2014-Oct-15 17:32N 40°38' W 074°10'0 0.0
2014-Oct-15 16:33N 40°38' W 074°10'0 0.0
2014-Oct-15 15:32N 40°38' W 074°10'0 0.0
2014-Oct-15 14:33N 40°38' W 074°10'1 1.3
2014-Oct-15 13:33N 40°40' W 074°09'0 0.5
2014-Oct-15 12:33N 40°39' W 074°09'5 4.5
2014-Oct-15 11:31N 40°38' W 074°03'5 5.4
2014-Oct-15 10:33N 40°38' W 074°10'0 0.0
2014-Oct-15 09:33N 40°38' W 074°10'0 0.0
2014-Oct-15 08:33N 40°38' W 074°10'0 0.0
2014-Oct-15 07:33N 40°38' W 074°10'0 0.0
2014-Oct-15 06:33N 40°38' W 074°10'2 1.5
2014-Oct-15 05:33N 40°39' W 074°08'1 1.3
2014-Oct-15 04:29N 40°40' W 074°09'1 1.4
2014-Oct-15 03:33N 40°38' W 074°10'0 0.0
2014-Oct-15 02:33N 40°38' W 074°10'0 0.0
2014-Oct-15 01:33N 40°38' W 074°10'0 0.0
2014-Oct-15 00:32N 40°38' W 074°10'0 0.0
2014-Oct-14 23:33N 40°38' W 074°10'3 1.5
2014-Oct-14 21:22N 40°41' W 074°08'1 1.7
2014-Oct-14 20:33N 40°40' W 074°08'2 2.0
2014-Oct-14 19:33N 40°38' W 074°10'0 0.0
2014-Oct-14 18:33N 40°38' W 074°10'0 0.0
2014-Oct-14 17:31N 40°38' W 074°10'0 0.0
2014-Oct-14 16:33N 40°38' W 074°10'4 4.2
2014-Oct-14 15:32N 40°39' W 074°04'1 0.3
2014-Oct-14 13:25N 40°40' W 074°04'4 5.2
2014-Oct-14 12:33N 40°38' W 074°10'0 0.0
2014-Oct-14 11:33N 40°38' W 074°10'0 0.0
2014-Oct-14 10:33N 40°38' W 074°10'0 0.0
2014-Oct-14 09:33N 40°38' W 074°10'0 0.0
2014-Oct-14 08:31N 40°38' W 074°10'0 0.0
2014-Oct-14 07:33N 40°38' W 074°10'0 0.0
2014-Oct-14 06:33N 40°38' W 074°10'0 0.0
2014-Oct-14 05:31N 40°38' W 074°10'0 0.0
2014-Oct-14 04:31N 40°38' W 074°10'0 0.0
2014-Oct-13 22:30N 40°38' W 074°10'0 0.0
2014-Oct-13 21:32N 40°38' W 074°10'1 0.5
2014-Oct-13 20:09N 40°39' W 074°09'2 2.8
2014-Oct-13 19:25N 40°41' W 074°09'2 2.8
2014-Oct-13 18:33N 40°38' W 074°10'0 0.1
2014-Oct-13 17:29N 40°38' W 074°10'0 0.0
2014-Oct-13 16:27N 40°38' W 074°10'0 0.0
2014-Oct-13 15:33N 40°38' W 074°10'0 0.0
2014-Oct-13 14:33N 40°38' W 074°10'0 0.0
2014-Oct-13 13:33N 40°38' W 074°10'0 0.0
2014-Oct-13 12:33N 40°38' W 074°10'0 0.0
2014-Oct-13 11:33N 40°38' W 074°10'0 0.0
2014-Oct-13 10:24N 40°38' W 074°10'0 0.0
2014-Oct-13 09:30N 40°38' W 074°10'0 0.0
2014-Oct-13 08:32N 40°38' W 074°10'1 1.2
2014-Oct-13 07:33N 40°39' W 074°09'0 0.2
2014-Oct-13 06:31N 40°39' W 074°09'1 0.2
2014-Oct-13 00:31N 40°38' W 074°10'0 0.0
2014-Oct-12 22:12N 40°38' W 074°10'1 1.1
2014-Oct-12 21:15N 40°39' W 074°09'3 2.2
2014-Oct-12 20:07N 40°39' W 074°06'3 4.7
2014-Oct-12 19:25N 40°38' W 074°10'0 0.0
2014-Oct-12 18:33N 40°38' W 074°10'0 0.0
2014-Oct-12 17:27N 40°38' W 074°10'2 2.7
2014-Oct-12 16:33N 40°41' W 074°09'2 2.2
2014-Oct-12 15:33N 40°39' W 074°08'3 2.5
2014-Oct-12 14:17N 40°39' W 074°04'5 5.9
2014-Oct-12 13:29N 40°38' W 074°10'0 0.0
2014-Oct-12 12:33N 40°38' W 074°10'0 0.2
2014-Oct-12 11:33N 40°38' W 074°10'4 4.1
2014-Oct-12 10:32N 40°40' W 074°05'  

Dump ship's entire track history